sat.trackr.live / text

‹ back to catalog

STARLINK-5611

NORAD 55761 · 2023-028W

PAYLOAD ACTIVE UNKNOWN

§ Identity

Operator
Country
US
Launch date
2023-03-03
Launch site
AFWTR
Launch vehicle
Mass (kg)
RCS (m²)

Purposes: comms

External: N2YO · Heavens-Above · Gunter

§ Orbital elements

Epoch: 2026-09-20T22:19:04.333728Z

Period
96.11 min
Inclination
69.9985°
Eccentricity
0.0002625
Mean motion
14.98332946 rev/d
Perigee alt
570.2 km
Apogee alt
573.9 km
Semi-major
6,950.2 km
B*
-9.5933e-6
RAAN
92.3735°
Arg perigee
269.8093°
Mean anomaly
90.2765°
Rev number
19,577

§ Raw data

STARLINK-56111 55761U 23028W   26263.92991127 -.00000207  00000+0 -95933-5 0  99922 55761  69.9985  92.3735 0002625 269.8093  90.2765 14.98332946195770

JSON: /api/v1/satellites/55761 · /tle

For live sub-satellite position, see the globe view (requires WebGL).

§ Visibility from observer

Set your observer location to see the next 7 days of passes ≥ 10°. The values pass through the URL so the page stays shareable.

No JS? Fill the form by hand. The geolocation button needs JavaScript.